FO-29
1 24278U 96046B 12311.24315477 .00000029 00000-0 65755-4 0 9756
2 24278 098.5856 033.3163 0351021 021.7125 339.8484 13.52991843801165
SO-33
1 25509U 98061B 12312.22210299 .00000752 00000-0 13894-3 0 3616
2 25509 031.4330 244.1750 0351558 014.9933 346.0827 14.28884852733122
RS-22
1 27939U 03042A 12312.44682914 .00000352 00000-0 75257-4 0 8827
2 27939 097.8006 145.8637 0013422 166.5724 193.5862 14.64204570486846
VO-52
1 28650U 05017B 12311.13854706 .00000645 00000-0 84575-4 0 2548
2 28650 097.5843 335.0861 0025214 296.6587 063.2020 14.83332291406012
HO-68
1 36122U 09072B 12312.10921686 -.00000044 00000-0 00000 0 0 9857
2 36122 100.3428 008.4562 0007787 140.5127 219.6564 13.16299705139197
UO-11
1 14781U 84021B 12311.58797227 .00000707 00000-0 98833-4 0 193
2 14781 097.9357 009.7347 0007501 292.7253 067.3166 14.80636181540990
AO-16
1 20439U 90005D 12311.82915981 .00000099 00000-0 52570-4 0 5989
2 20439 098.4442 251.3057 0011836 095.3658 264.8878 14.32105461190414
LO-19
1 20442U 90005G 12312.38951331 .00000039 00000-0 30068-4 0 5290
2 20442 098.4126 254.3676 0012870 087.2835 272.9821 14.32320656190685
AO-27
1 22825U 93061C 12311.89641613 .00000014 00000-0 22731-4 0 2373
2 22825 098.5897 252.5886 0007719 217.5520 142.5120 14.29504768996868
IO-26
1 22826U 93061D 12310.89008098 .00000124 00000-0 65163-4 0 9899
2 22826 098.5835 251.9302 0008268 213.7633 146.3021 14.29782905996852
GO-32
1 25397U 98043D 12310.98154140 .00000028 00000-0 30651-4 0 9156
2 25397 098.3828 282.8444 0000773 182.1991 177.9206 14.23303870744194
NO-44
1 26931U 01043C 12311.80790469 .00000200 00000-0 10971-3 0 1782
2 26931 067.0508 112.7454 0005197 253.7492 106.3042 14.29852937579633
SO-50
1 27607U 02058C 12312.20049998 .00000404 00000-0 82405-4 0 9088
2 27607 064.5579 219.7928 0072692 219.4506 140.1297 14.72616730531023
CO-55
1 27844U 03031E 12311.07860621 .00000231 00000-0 12653-3 0 5015
2 27844 098.7030 317.4058 0009628 169.1171 191.0209 14.21105629485047
CO-57
1 27848U 03031J 12311.53004029 .00000205 00000-0 11487-3 0 4500
2 27848 098.7120 317.2513 0009534 172.7026 187.4279 14.20846993485041
AO-51
1 28375U 04025K 12310.94119812 .00000439 00000-0 14410-3 0 4060
2 28375 098.1670 269.7714 0083776 332.4802 027.1950 14.41024778439184
CP3
1 31129U 07012N 12311.54460767 .00000669 00000-0 16066-3 0 3068
2 31129 097.8860 310.9791 0102021 040.6060 320.2657 14.53299441294651
CO-65
1 32785U 08021C 12311.73131007 .00001042 00000-0 13337-3 0 4617
2 32785 097.7807 009.2996 0013399 319.9700 040.0529 14.83347041244896
PRISM
1 33493U 09002B 12312.04616328 .00002822 00000-0 33901-3 0 2325
2 33493 098.1896 096.2633 0018335 191.3014 168.7772 14.84711375204941
SOHLA-1
1 33496U 09002E 12311.90841748 .00000307 00000-0 59424-4 0 8790
2 33496 098.1172 062.8101 0005825 314.5518 045.5210 14.70102180203219
SO-67
1 35870U 09049F 12312.21131128 .00003825 00000-0 15574-3 0 4889
2 35870 097.2172 342.9138 0003291 053.5709 013.7662 15.25071394174405
TISAT-1
1 36799U 10035E 12312.39156409 .00001731 00000-0 22204-3 0 5079
2 36799 098.0524 029.7316 0015948 070.4722 289.8210 14.82495668125709
STUDSAT
1 36801U 10035G 12311.24887722 .00004727 00000-0 54869-3 0 5132
2 36801 098.0668 030.0281 0012965 060.4307 299.8181 14.85829750125605
FO-69
1 37227U 0 12313.28533313 .00000351 00000-0 57243-4 0 03313
2 37227 071.9710 353.9463 0015389 048.4481 311.8017 14.77254389057379
FO-70
1 37380U 0 12313.45076167 .00000328 00000-0 54271-4 0 03346
2 37380 071.9750 354.3243 0015952 045.3066 314.9384 14.77001025057283
ALMASAT-1
1 38078U 12006B 12312.45772154 .00013273 00000-0 36640-3 0 7175
2 38078 069.4744 351.5062 0733783 068.5571 299.2164 14.14749542 37775
XATCOBEO
1 38082U 12006F 12312.46275411 .00035296 00000-0 83348-3 0 6798
2 38082 069.4833 344.3664 0678588 064.5751 302.4013 14.29527251 37962
NOAA-10
1 16969U 86073A 12312.35185062 .00000047 00000-0 36476-4 0 1256
2 16969 098.5699 338.7734 0012224 171.3982 188.7411 14.27591305360293
NOAA-11
1 19531U 88089A 12312.19527712 .00000022 00000-0 33731-4 0 1206
2 19531 098.7258 034.3000 0011090 171.7336 188.4014 14.14989265244734
NOAA-12
1 21263U 91032A 12312.44526103 .00000096 00000-0 59417-4 0 6007
2 21263 098.7180 333.3765 0014215 141.7380 218.4813 14.25528533116964
MET-3/5
1 21655U 91056A 12312.19650018 -.00000001 00000-0 -34453-4 0 5452
2 21655 082.5586 051.1455 0012381 327.7723 032.2641 13.17041703 20717
MET-2/21
1 22782U 93055A 12310.95891467 .00000046 00000-0 27713-4 0 5731
2 22782 082.5457 280.0195 0023925 113.0467 247.3226 13.83691309968778
OKEAN-4
1 23317U 94066A 12311.91730499 .00000963 00000-0 11239-3 0 472
2 23317 082.5388 257.7327 0019246 238.9471 120.9856 14.84076049975972
NOAA-14
1 23455U 94089A 12312.42063652 .00000056 00000-0 52548-4 0 828
2 23455 098.8217 034.0659 0008687 270.8220 089.1958 14.13879752921035
NOAA-15
1 25338U 98030A 12312.07398347 .00000195 00000-0 10191-3 0 4716
2 25338 098.7044 297.7433 0011562 055.1352 305.0930 14.25141797753204
RESURS
1 25394U 98043A 12311.16686336 .00000034 00000-0 32497-4 0 2252
2 25394 098.3348 292.0365 0001376 142.1057 218.0220 14.24306063744610
FENGYUN1
1 25730U 99025A 12310.95296749 .00000559 00000-0 34211-3 0 7339
2 25730 098.8563 267.5650 0020907 319.3517 040.6090 14.09818734694582
OKEAN-0
1 25860U 99039A 12311.85671143 .00000431 00000-0 72448-4 0 7809
2 25860 097.9562 271.7466 0001540 096.0091 264.1293 14.74374554715597
NOAA-16
1 26536U 00055A 12312.31001555 .00000182 00000-0 12271-3 0 9594
2 26536 099.0767 356.5209 0011007 044.1314 316.0725 14.12803055625240
NOAA-17
1 27453U 02032A 12312.17480350 .00000170 00000-0 91049-4 0 9002
2 27453 098.3258 331.9191 0012723 096.7608 263.5021 14.24504555539119
NOAA-18
1 28654U 05018A 12312.30650797 .00000532 00000-0 31667-3 0 3827
2 28654 099.0665 271.7246 0014968 111.0829 249.1960 14.11727850384755
NOAA-19
1 33591U 09005A 12312.27566813 -.00000072 00000-0 -15493-4 0 5692
2 33591 098.8778 250.3756 0014149 340.8294 019.2353 14.11411713193197
HUBBLE
1 20580U 90037B 12311.38332071 .00001657 00000-0 10791-3 0 1047
2 20580 028.4700 292.7077 0003654 133.7621 226.3272 15.02995751 36134
ISS
1 25544U 98067A 12313.29469907 .00005971 00000-0 10757-3 0 6112
2 25544 051.6480 125.5966 0015398 257.8149 100.7055 15.51216053800399
CO-58
1 28895U 05043F 12311.08388889 .00000307 00000-0 71651-4 0 3206
2 28895 097.8933 170.9692 0018803 066.1396 294.1784 14.60825777374374
FALCON
1 30776U 07006E 12311.92451149 .00003052 00000-0 19310-3 0 4777
2 30776 035.4388 124.3099 0001310 265.1924 094.8645 15.08736050311813
MAST
1 31126U 07012K 12311.92542844 .00000374 00000-0 93137-4 0 6009
2 31126 097.8752 314.6945 0094274 026.3504 334.2448 14.54321306295015
